Retour au catalogue

STARLINK-36833

ActifCommunicationsSSO
NORAD 68109·PAYLOAD·🇺🇸 United States

Lancé Mar 8, 2026 depuis Vandenberg Space Force Base

Loading…

Prochains Passages (prochaines 24 heures)

TLE

FraisSource: CelesTrak SupGP

Époque: Sep 14, 2026, 23:02 UTC

1 68109C 26044J   26257.96020833 -.00051691  00000+0 -16047-2 0  2573
2 68109  97.2850 216.9682 0001827  87.0843  46.3424 15.33462157    10

Suivez STARLINK-36833 en temps réel avec AllMySat

Download on the App Store